Location: Unspecified
(0.0000°N, 0.0000°E)
Time: 09:49:30
(UTC+00:00)

Vanguard 2 - Pass Details

Date: 21 October 2021
Orbit: 554 x 2936 km, 32.9° (Epoch: 06 December)

Event Time Altitude Azimuth Distance (km) Brightness Sun altitude
Rises 11:27:56 0° 290° (WNW) 2,865 10.4 78.4°
Reaches altitude 10° 11:30:00 10° 282° (WNW) 2,086 9.8 78.5°
Maximum altitude 11:34:30 44° 210° (SSW) 1,149 9.4 78.8°
Drops below altitude 10° 11:41:18 10° 139° (SE) 3,139 10.9 79.1°
Sets 11:45:06 0° 133° (SE) 4,516 11.6 79.1°
